Location: Bennemühlen
(52.5740°N, 9.7135°E)
Time: 21:11:09
(UTC+00:00)

Tiros 1 despin weight - Pass Details

Date: 20 February 2026
Orbit: 556 x 593 km, 48.2° (Epoch: 8 March)

Event Time Altitude Azimuth Distance (km) Brightness Sun altitude
Rises 13:52:36 0° 222° (SW) 2,740 ? 20.1°
Reaches altitude 10° 13:55:09 10° 208° (SSW) 1,842 ? 19.9°
Maximum altitude 13:58:34 24° 154° (SSE) 1,168 ? 19.6°
Drops below altitude 10° 14:01:58 10° 99° (E) 1,839 ? 19.2°
Sets 14:04:31 0° 86° (E) 2,736 ? 19.0°
